Weather History for Capo Mele, Italy

Change the Weather History Date:

Saturday, July 18, 2009

  Actual Average Record
Temperature  
Mean Temperature 70 °F -  
Max Temperature 74 °F 79 °F 93 °F (2010)
Min Temperature 66 °F 68 °F 64 °F (2000)
Cooling Degree Days 5    
Growing Degree Days 20 (Base 50)    
Moisture  
Dew Point 51 °F    
Average Humidity 50    
Maximum Humidity 78    
Minimum Humidity 28    
Precipitation  
Precipitation 0.00 in 0.03 in - ()
Sea Level Pressure  
Sea Level Pressure 29.79 in    
Wind  
Wind Speed 14 mph ()    
Max Wind Speed 30 mph    
Max Gust Speed 43 mph    
Visibility 7.4 miles    
Events      
Averages and records for this station are not official NWS values.
T = Trace of Precipitation, MM = Missing Value Source: Averaged Metar Reports

Daily Weather History Graph

Daily Weather History Graph

Search for Another Location

Airport:

Trip Planner

Search our weather history database for the weather conditions in past years. The results will help you decide how hot, cold, wet, or windy it might be!

Date:

Astronomy

Jul. 18, 2009 Rise Set
Actual Time 6:01 AM CEST 9:05 PM CEST
Civil Twilight 5:26 AM CEST 9:39 PM CEST
Nautical Twilight 4:42 AM CEST 10:24 PM CEST
Astronomical Twilight 3:48 AM CEST 11:16 PM CEST
Moon 1:40 AM CEST (7/18) 5:52 PM CEST (7/18)
Length of Visible Light 16h 13m
Length of Day
15h 04m
Waning Crescent, 19% of the Moon is Illuminated
Jul 18
Waning Crescent
Jul 22
New
Jul 29
First Quarter
Aug 6
Full
Aug 13
Last Quarter

Hourly Weather History & Observations

Time (CEST) Temp. Dew Point Humidity Pressure Visibility Wind Dir Wind Speed Gust Speed Precip Events Conditions
12:55 AM 71.6 °F 44.6 °F 38% 29.65 in - WSW 27.6 mph 39.1 mph N/A   Clear
1:55 AM 69.8 °F 44.6 °F 40% 29.62 in 6.2 mi SW 29.9 mph 42.6 mph N/A   Partly Cloudy
2:00 AM 71 °F 45 °F 28% 29.60 in 12 mi SW 29.9 mph - -   Scattered Clouds
2:55 AM 69.8 °F 42.8 °F 38% 29.62 in 6.2 mi WNW 6.9 mph - N/A   Partly Cloudy
3:55 AM 69.8 °F 42.8 °F 38% 29.62 in - North 16.1 mph - N/A   Clear
4:55 AM 69.8 °F 44.6 °F 40% 29.62 in - North 12.7 mph - N/A   Clear
5:55 AM 69.8 °F 35.6 °F 28% 29.68 in - North 11.5 mph - N/A   Clear
6:55 AM 66.2 °F 46.4 °F 49% 29.71 in - NNE 13.8 mph - N/A   Clear
7:55 AM 66.2 °F 53.6 °F 64% 29.74 in - NNE 15.0 mph - N/A   Clear
8:00 AM 67 °F 53 °F 52% 29.73 in 12 mi NNE 15.0 mph - -  
8:55 AM 69.8 °F 50.0 °F 49% 29.74 in - SSW 6.9 mph - N/A   Clear
9:55 AM 69.8 °F 51.8 °F 53% 29.77 in - South 11.5 mph - N/A   Clear
10:55 AM 69.8 °F 53.6 °F 56% 29.77 in - SSW 18.4 mph - N/A   Clear
11:55 AM 71.6 °F 51.8 °F 50% 29.80 in - SSW 17.3 mph - N/A   Clear
12:55 PM 71.6 °F 55.4 °F 57% 29.83 in 6.2 mi South 12.7 mph - N/A   Partly Cloudy
1:55 PM 69.8 °F 55.4 °F 60% 29.86 in 6.2 mi South 5.8 mph - N/A   Partly Cloudy
2:00 PM 71 °F 56 °F 50% 29.84 in 31 mi South 5.8 mph - -   Scattered Clouds
2:55 PM 73.4 °F 53.6 °F 50% 29.86 in 6.2 mi ENE 4.6 mph - N/A   Partly Cloudy
3:55 PM 75.2 °F 51.8 °F 44% 29.89 in 6.2 mi NNE 2.3 mph - N/A   Partly Cloudy
4:55 PM 73.4 °F 55.4 °F 53% 29.89 in 6.2 mi SSE 2.3 mph - N/A   Partly Cloudy
5:55 PM 71.6 °F 55.4 °F 57% 29.89 in 6.2 mi SSE 3.5 mph - N/A   Partly Cloudy
6:55 PM 73.4 °F 55.4 °F 53% 29.89 in - South 6.9 mph - N/A   Clear
7:55 PM 73.4 °F 48.2 °F 41% 29.89 in - SW 4.6 mph - N/A   Clear
8:00 PM 73 °F 49 °F 31% 29.89 in 31 mi SW 4.6 mph - -  
8:55 PM 69.8 °F 59.0 °F 68% 29.92 in - NNE 5.8 mph - N/A   Clear
9:55 PM 68.0 °F 60.8 °F 78% 29.92 in - NNE 11.5 mph - N/A   Clear
10:55 PM 68.0 °F 59.0 °F 73% 29.92 in - North 13.8 mph - N/A   Clear
11:55 PM 68.0 °F 59.0 °F 73% 29.95 in - North 16.1 mph - N/A   Clear